Location: Carabito
(9.8355°N, 67.9249°W)
Time: 11:44:16
(UTC+00:00)

Aureole 1 Rocket - Pass Details

Date: 23 May 2024
Orbit: 377 x 1261 km, 73.9° (Epoch: 24 June)

Event Time Altitude Azimuth Distance (km) Brightness Sun altitude
Exits shadow 08:40:08 21° 160° (SSE) 1,146 4.3 -21.1°
Maximum altitude 08:42:03 37° 104° (ESE) 717 3.8 -20.6°
Drops below altitude 10° 08:45:03 10° 35° (NE) 1,481 5.9 -20.0°
Sets 08:47:00 0° 26° (NNE) 2,284 6.8 -19.6°
